Home   Weather   Macapá   Past weeks

Flag for Brazil Past Weather in Macapá, Amapá, Brazil — Yesterday and Last 2 Weeks

Now
79 °F

Passing clouds.


Feels Like: 83 °F
Forecast: 78 / 96 °F
Wind: 5 mph from Northwest

Location: Macapa Airport

Current Time: Dec 8, 2016 at 6:55:42 am

Latest Report: Dec 8, 2016 at 6:00 am


Visibility: N/A

Pressure: 29.86 "Hg

Humidity: 100%

Dew Point: 79 °F

Location of MacapáLocation

Past Weather in Macapá — Graph

°F

Macapá Temperature Yesterday

Maximum temperature yesterday: 97 °F (at 1:00 pm)
Minimum temperature yesterday: 79 °F (at 5:00 am)
Average temperature yesterday: 88 °F

High & Low Weather Summary for the Past Weeks

 TemperatureHumidityPressure
High97 °F (Nov 23, 2:00 pm)100% (Nov 25, 6:00 am)29.95 "Hg (Nov 25, 6:00 am)
Low75 °F (Dec 6, 5:00 am)44% (Nov 23, 2:00 pm)29.74 "Hg (Nov 23, 5:00 pm)
Average86 °F70%29.83 "Hg
* Reported Nov 23 5:00 am — Dec 8 5:00 am, Macapá, Weather by CustomWeather, © 2016

Note: Actual official high and low records may vary slightly from our data, if they occured in-between our weather recording intervals... More about our weather records

Advertising

Macapá Weather History for the Previous 24 Hours

Scroll right to see more
 ConditionsComfort  
Time TempWeatherWind HumidityBarometerVisibility
5:00 am
Thu, Dec 8
79 °FClear.5 mph100%29.86 "Hg10 mi
4:00 am79 °FClear.5 mph94%29.83 "Hg10 mi
3:00 am79 °FClear.6 mph94%29.83 "Hg10 mi
2:00 am81 °FClear.5 mph89%29.83 "Hg10 mi
1:00 am81 °FClear.7 mph84%29.83 "Hg10 mi
12:00 am82 °FPassing clouds.6 mph79%29.86 "HgN/A
11:00 pm
Wed, Dec 7
82 °FPassing clouds.8 mph79%29.86 "HgN/A
10:00 pm84 °FPassing clouds.10 mph74%29.86 "HgN/A
9:00 pm84 °FPassing clouds.13 mph74%29.86 "HgN/A
8:00 pm86 °FPassing clouds.12 mph66%29.83 "HgN/A
7:00 pm86 °FPassing clouds.16 mph62%29.80 "HgN/A
6:00 pm90 °FPassing clouds.17 mph59%29.77 "HgN/A
5:00 pm93 °FPassing clouds.16 mph53%29.77 "HgN/A
4:00 pm95 °FPassing clouds.22 mph50%29.77 "HgN/A
3:00 pm97 °FPassing clouds.20 mph44%29.80 "HgN/A
2:00 pm97 °FScattered clouds.20 mph47%29.83 "HgN/A
1:00 pm97 °FScattered clouds.12 mph50%29.86 "HgN/A
12:00 pm95 °FScattered clouds.14 mph53%29.89 "HgN/A
11:00 am95 °FScattered clouds.12 mph53%29.89 "HgN/A
10:00 am93 °FScattered clouds.12 mph56%29.92 "HgN/A
9:00 am90 °FScattered clouds.12 mph63%29.92 "HgN/A
8:00 am84 °FSunny.8 mph74%29.89 "Hg10 mi
7:00 am79 °FSunny.6 mph89%29.86 "Hg10 mi
6:00 am79 °FPassing clouds.5 mph94%29.83 "Hg5 mi
Weather by CustomWeather, © 2016

See weather overviewHow to use our weather pages